Regional Weather Roundup
Issued by NWS

Home | Current Version | Previous Version | Text Only | Print | Product List | Glossary On
Versions: 1 2 3 4 5 6 7 8 9 10 11 12 13 14 15 16 17 18 19 20 21 22 23 24 25 26 27
000
ASUS45 KCYS 272110
RWRWY

WYOMING REGIONAL WEATHER ROUNDUP
NATIONAL WEATHER SERVICE CHEYENNE WY
300 PM MDT SAT MAY 27 2017

NOTE:  "FAIR" INDICATES FEW OR NO CLOUDS BELOW 12,000 FEET
WITH NO SIGNIFICANT WEATHER AND/OR OBSTRUCTIONS TO VISIBILITY.

WYZ001-272200-
YELLOWSTONE NATIONAL PARK

CITY           SKY/WX    TMP DP  RH WIND       PRES   REMARKS
LK YELLOWSTONE   N/A     45  34  65 VRB5      30.32R
W YELLOWSTONE  NOT AVBL

$$
WYZ002>013-054>058-071-098>099-272200-
NORTHERN WYOMING

CITY           SKY/WX    TMP DP  RH WIND       PRES   REMARKS
JACKSON        PTSUNNY   55  30  38 CALM      30.27S
CODY           FAIR      66  30  26 VRB6      30.18S
GREYBULL       FAIR      71  25  17 N14       30.12S
WORLAND        FAIR      68  27  21 NW12G17   30.14S
SHERIDAN       FAIR      69  36  29 NW16G24   30.09F
BUFFALO        FAIR      66  32  28 N21G26    30.13S
GILLETTE       PTSUNNY   63  37  38 NW10      30.09R
HULETT         CLOUDY    63  32  31 NW13G22   30.07S
NEWCASTLE      FAIR      63  28  27 NW14G29   30.07S

$$
WYZ014>020-022>026-101>103-272200-
CENTRAL WYOMING

CITY           SKY/WX    TMP DP  RH WIND       PRES   REMARKS
BIG PINEY      PTSUNNY   58  25  28 N20G25    30.26R
PINEDALE       CLOUDY    54  21  28 NW8G22    30.26S
DUBOIS         MOCLDY    54  27  35 MISG      30.25R
LANDER         FAIR      61  33  35 E8        30.19S
RIVERTON       PTSUNNY   62  29  28 VRB3      30.20R
CASPER         FAIR      60  31  33 NW7       30.17S
DOUGLAS        PTSUNNY   60  33  36 NW16      30.14F

$$
WYZ021-027>030-104>119-272200-
SOUTHERN WYOMING

CITY           SKY/WX    TMP DP  RH WIND       PRES   REMARKS
EVANSTON       PTSUNNY   58  26  29 NW6G18    30.28R
KEMMERER         N/A     57  27  30 NW8G16    30.26F
FORT BRIDGER   MOCLDY    62  27  25 W10G16    30.29S
ROCK SPRINGS   FAIR      56  28  34 E6        30.24S
DIXON            N/A     59  29  32 NW12G17   30.24R
RAWLINS        PTSUNNY   55  23  28 N15       30.22R
SARATOGA       MOCLDY    54  34  47 N14       30.22S
LARAMIE        PTSUNNY   49  30  48 NW16G28   30.19S
CHEYENNE       FAIR      55  36  48 NW15G23   30.16R
TORRINGTON     PTSUNNY   63  41  44 NW10      30.09S
PINE BLUFFS    FAIR      55  39  54 N15G22    30.14R

$$




USA.gov is the U.S. government's official web portal to all federal, state and local government web resources and services.